COSMOS 339

导读

COSMOS 339(宇宙339号)是苏联(归属独联体CIS)于1970年4月25日08:00发射的卫星,属于苏联“宇宙”系列卫星家族,冷战时期该系列多承担军事与空间技术试验任务。作为冷战太空竞赛背景下的产物,它的发射体现了当时苏联航天技术发展水平,延续了“宇宙”系列对空间技术探索、军事应用验证的任务定位,是苏联航天发展历程中的重要组成部分,推动了苏联近地空间技术的持续进步。

Basic Information
目录编号:
4386
目录名称:
COSMOS 339
国际标识:
1970-036D
轨道中心:
EARTH
卫星名称:
COSMOS 339
卫星全名:
--
卫星状态:
在轨 (已飞行20507 天)
发射日期:
1970-04-25 UTC
国别 :
俄罗斯(独联体) (CIS)
星等 :
--
Orbit Information
数据来源 国际轨道数据 AOE轨道数据
星历时间 2026-06-17T16:11:08+0800
13小时前
查看轨道信息
2026-06-17T07:00:00+0800
23小时前
查看轨道信息
半长轴 7834.795km 7834.796km
偏心率 0.0015113 0.001496
轨道倾角 74.027° 74.028°
近地点辐角 155.047° 155.427°
升交点赤经 140.145° 140.655°
平近点角 276.057° 351.372°
近地点 1444.817km 1444.938km
远地点 1468.499km 1468.38km
周期 115.027分钟 115.027分钟
每日圈数 12.518761 12.518759
Detailed Information
使用方式:
暂无
2D Orbit Map
3D Orbit Map
Orbit Altitude Analysis Chart
Orbit Inclination Analysis Chart
Orbit Comprehensive Analysis Chart
View Comprehensive Chart